www.pogodaiklimat.ru

Погода и климат >> Архив погоды >> Австралия >> Северная территория >> Дерби


ПОГОДА в Дерби

  • Прогноз погоды в Дерби
  • Монитор погоды в Дерби

АРХИВ ПОГОДЫ в Дерби

Время (UTC), дата Ветер
(напр.,м/с)
 
Видим.   Явления Облачность Т
(С)
Тd
(С)
f
(%)
Тe
(С)
Тes
(С)
Комфортность P
(гПа)
Po
(гПа)
Тmin
(С)
Tmax
(С)
R
(мм)
R24
(мм)
S
(см)
04 12.06 ЮВ 6 н/о н/о +31.1 +11.5 30 +31 +31 жарко 1015.5 1014.7
06 12.06 ЮВ 5 н/о н/о +31.8 +11.6 29 +32 +32 жарко 1013.5 1012.7
07 12.06 Ю 5 н/о н/о +32.3 +12.0 29 +33 +33 жарко 1013.2 1012.4
09 12.06 Ю 6 н/о н/о +30.8 +11.2 30 +31 +31 жарко 1013.8 1013.0
10 12.06 Ю 4 н/о н/о +28.3 +10.0 32 +29 +29 жарко 1014.4 1013.6
12 12.06 ЮВ 4 н/о н/о +24.9 +9.6 38 +26 +26 жарко 1015.3 1014.5
13 12.06 ЮВ 4 н/о н/о +23.7 +9.3 40 +25 +25 комфорт 1015.4 1014.6 +33.0
15 12.06 Ю 4 н/о н/о +23.2 +6.9 35 +24 +24 комфорт 1015.1 1014.3
16 12.06 Ю 5 н/о н/о +22.4 +6.2 35 +23 +23 комфорт 1015.0 1014.2
18 12.06 ЮВ 3 н/о н/о +20.1 +5.7 39 +21 +21 комфорт 1014.5 1013.7
19 12.06 Ю 4 н/о н/о +20.2 +5.4 38 +21 +21 комфорт 1014.4 1013.6
21 12.06 ЮВ 4 н/о н/о +18.6 +5.5 42 +19 +19 1014.7 1013.9
22 12.06 Ю 4 н/о н/о +18.4 +5.6 43 +19 +19 1015.2 1014.4
00 13.06 ЮВ 5 н/о н/о +23.8 +5.7 31 +24 +24 комфорт 1016.1 1015.3
01 13.06 ЮВ 7 н/о н/о +27.4 +5.6 25 +26 +26 жарко 1016.2 1015.4 +18.2
03 13.06 ЮВ 7 н/о н/о +31.4 +7.1 22 +30 +30 жарко 1014.9 1014.1
04 13.06 ЮВ 6 н/о н/о +32.7 +8.2 22 +31 +31 жарко 1013.7 1012.9
06 13.06 В 5 н/о н/о +33.8 +9.1 22 +33 +33 жарко 1011.8 1011.0
07 13.06 Ю 7 н/о н/о +33.9 +8.5 21 +32 +32 жарко 1011.7 1010.9
09 13.06 Ю 5 н/о н/о +31.9 +8.8 24 +31 +31 жарко 1012.4 1011.6
10 13.06 Ю 5 н/о н/о +29.3 +8.4 27 +29 +29 жарко 1013.3 1012.5
12 13.06 ЮВ 4 н/о н/о +25.5 +8.5 34 +26 +26 жарко 1014.7 1013.9
13 13.06 ЮВ 4 н/о н/о +24.3 +8.3 36 +25 +25 комфорт 1014.9 1014.1 +34.7
15 13.06 ЮВ 4 н/о н/о +23.4 +8.3 38 +25 +25 комфорт 1014.7 1013.9
16 13.06 Ю 4 н/о н/о +23.2 +8.1 38 +24 +24 комфорт 1014.6 1013.8
18 13.06 Ю 4 н/о н/о +20.3 +8.0 45 +21 +21 комфорт 1014.2 1013.4
19 13.06 Ю 4 н/о н/о +20.2 +6.9 42 +21 +21 комфорт 1013.7 1012.9
21 13.06 Ю 4 н/о н/о +19.3 +6.1 42 +20 +20 1014.0 1013.2
22 13.06 Ю 3 н/о н/о +18.6 +5.8 43 +19 +19 1014.6 1013.8
00 14.06 Ю 4 н/о н/о +22.6 +4.6 31 +23 +23 комфорт 1015.7 1014.9
01 14.06 ЮВ 6 н/о н/о +28.8 +5.0 22 +27 +27 жарко 1015.7 1014.9 +18.2
03 14.06 ЮВ 5 н/о н/о +31.7 +6.0 20 +30 +30 жарко 1014.0 1013.2
04 14.06 ЮВ 5 н/о н/о +33.9 +7.8 20 +32 +32 жарко 1013.0 1012.2
06 14.06 ЮВ 6 н/о н/о +34.3 +8.8 21 +33 +33 жарко 1011.0 1010.2
07 14.06 ЮВ 5 н/о н/о +34.8 +8.5 20 +33 +33 жарко 1010.5 1009.7
09 14.06 Ю 5 н/о н/о +32.9 +9.0 23 +32 +32 жарко 1011.3 1010.5
10 14.06 Ю 4 н/о н/о +30.0 +9.0 27 +29 +29 жарко 1012.1 1011.3
12 14.06 ЮВ 4 н/о н/о +26.3 +8.8 33 +27 +27 жарко 1013.4 1012.6
13 14.06 ЮВ 3 н/о н/о +24.9 +8.8 36 +25 +25 комфорт 1013.7 1012.9 +35.5
15 14.06 ЮВ 3 н/о н/о +22.9 +8.2 39 +24 +24 комфорт 1013.6 1012.8
16 14.06 Ю 4 н/о н/о +21.7 +7.5 40 +23 +23 комфорт 1013.4 1012.6
18 14.06 Ю 2 н/о н/о +21.5 +5.8 36 +22 +22 комфорт 1013.1 1012.3
19 14.06 Ю 3 н/о н/о +19.9 +6.6 42 +21 +21 комфорт 1013.1 1012.3
21 14.06 ЮВ 3 н/о н/о +20.2 +3.9 34 +21 +21 комфорт 1013.7 1012.9
22 14.06 ЮВ 2 н/о н/о +19.2 +4.2 37 +20 +20 1014.4 1013.6
00 15.06 ЮВ 4 н/о н/о +23.5 +1.2 23 +23 +23 комфорт 1015.9 1015.1
01 15.06 Ю 4 н/о н/о +26.7 +1.9 20 +25 +25 комфорт 1016.3 1015.5 +18.2
03 15.06 Ю 5 н/о н/о +32.2 +4.9 18 +30 +30 жарко 1015.2 1014.4
04 15.06 Ю 6 н/о н/о +32.8 +6.9 20 +31 +31 жарко 1013.9 1013.1
06 15.06 Ю 6 н/о н/о +34.0 +8.6 21 +33 +33 жарко 1011.9 1011.1
07 15.06 Ю 5 н/о н/о +34.1 +8.0 20 +32 +32 жарко 1011.7 1010.9
09 15.06 Ю 6 н/о н/о +32.3 +6.5 20 +30 +30 жарко 1012.1 1011.3
10 15.06 Ю 5 н/о н/о +29.2 +5.3 22 +28 +28 жарко 1012.9 1012.1
12 15.06 ЮВ 4 н/о н/о +25.0 +5.2 28 +25 +25 комфорт 1014.1 1013.3
13 15.06 Ю 4 н/о н/о +23.7 +4.6 29 +23 +23 комфорт 1014.6 1013.8 +35.2
15 15.06 ЮВ 5 н/о н/о +23.4 -0.1 21 +22 +22 комфорт 1014.5 1013.7
16 15.06 Ю 6 н/о н/о +23.4 -2.2 18 +22 +22 комфорт 1014.5 1013.7
18 15.06 Ю 4 н/о н/о +21.2 -2.6 20 +20 +20 1014.7 1013.9
19 15.06 Ю 4 н/о н/о +19.9 -3.0 21 +20 +20 1014.9 1014.1
21 15.06 ЮВ 4 н/о н/о +19.9 -2.4 22 +20 +20 1014.9 1014.1
22 15.06 Ю 4 н/о н/о +17.2 -1.4 28 +17 +17 1015.3 1014.5
00 16.06 ЮВ 4 н/о н/о +23.1 -1.1 20 +22 +22 комфорт 1016.4 1015.6
01 16.06 ЮВ 7 н/о н/о +26.1 -1.7 16 +24 +24 комфорт 1016.4 1015.6 +16.9
03 16.06 В 5 н/о н/о +30.8 +0.2 14 +28 +28 жарко 1015.0 1014.2
04 16.06 ЮВ 3 н/о н/о +32.3 +1.4 14 +29 +29 жарко 1013.9 1013.1
06 16.06 Ю 3 н/о н/о +33.4 +5.9 18 +31 +31 жарко 1012.2 1011.4
07 16.06 СЗ 4 н/о н/о +33.9 +5.4 17 +32 +32 жарко 1011.7 1010.9
09 16.06 З 4 н/о н/о +30.2 +7.4 24 +29 +29 жарко 1012.1 1011.3
10 16.06 З 2 н/о н/о +26.5 +7.5 30 +26 +26 жарко 1012.8 1012.0
12 16.06 штиль 0 н/о н/о +23.8 +9.0 39 +25 +25 комфорт 1014.4 1013.6
13 16.06 Ю 3 н/о н/о +22.8 +9.2 42 +24 +24 комфорт 1014.4 1013.6 +34.5
15 16.06 Ю 3 н/о н/о +20.4 +5.6 38 +22 +22 комфорт 1014.5 1013.7
16 16.06 ЮЗ 3 н/о н/о +19.6 +5.3 39 +20 +20 1014.5 1013.7
18 16.06 ЮЗ 4 н/о н/о +17.8 +4.0 40 +18 +18 1014.3 1013.5
19 16.06 Ю 3 н/о н/о +17.0 +4.0 42 +17 +17 1014.0 1013.2
21 16.06 штиль 0 н/о н/о +14.3 +4.9 53 +14 +14 1014.6 1013.8
22 16.06 штиль 0 н/о н/о +14.4 +5.2 54 +14 +14 1015.2 1014.4
00 17.06 Ю 2 н/о н/о +20.8 +2.1 29 +22 +22 комфорт 1016.0 1015.2
01 17.06 Ю 3 н/о н/о +23.7 +2.5 25 +23 +23 комфорт 1016.0 1015.2 +13.9
03 17.06 СЗ 3 н/о н/о +29.9 +4.5 20 +28 +28 жарко 1014.7 1013.9
04 17.06 СЗ 4 н/о н/о +31.3 +8.3 24 +30 +30 жарко 1013.7 1012.9
06 17.06 СЗ 5 н/о н/о +32.4 +6.6 20 +31 +31 жарко 1011.8 1011.0
07 17.06 СЗ 5 н/о н/о +32.7 +6.8 20 +31 +31 жарко 1011.6 1010.8
09 17.06 СЗ 4 н/о н/о +30.0 +9.0 27 +29 +29 жарко 1012.2 1011.4
10 17.06 С 3 н/о н/о +27.5 +8.4 30 +27 +27 жарко 1012.7 1011.9
12 17.06 З 3 н/о н/о +23.6 +14.0 55 +26 +26 жарко 1014.2 1013.4
13 17.06 Ю 1 н/о н/о +23.7 +12.0 48 +25 +25 комфорт 1014.7 1013.9 +33.5
15 17.06 ЮЗ 2 н/о н/о +21.1 +9.4 47 +22 +22 комфорт 1014.3 1013.5
16 17.06 ЮВ 2 н/о н/о +18.7 +7.5 48 +20 +20 1014.3 1013.5
18 17.06 Ю 3 н/о н/о +19.7 +7.8 46 +21 +21 комфорт 1013.9 1013.1
19 17.06 Ю 2 н/о 1/0
[]
+18.9 +7.0 46 +20 +20 1013.6 1012.8
21 17.06 ЮВ 3 н/о н/о +17.6 +7.6 52 +18 +18 1013.8 1013.0
22 17.06 ЮВ 2 н/о н/о +16.9 +7.8 55 +17 +17 1014.2 1013.4
00 18.06 СВ 2 н/о н/о +22.0 +7.4 39 +23 +23 комфорт 1015.5 1014.7
01 18.06 З 2 н/о н/о +24.3 +5.6 30 +24 +24 комфорт 1015.6 1014.8 +13.9
03 18.06 СЗ 3 н/о н/о +28.8 +9.5 30 +29 +29 жарко 1014.6 1013.8
04 18.06 СЗ 4 н/о 1/0
[]
+29.6 +8.6 27 +29 +38 жарко 1013.7 1012.9
06 18.06 СЗ 6 н/о н/о +31.1 +9.3 26 +30 +30 жарко 1012.3 1011.5
07 18.06 СЗ 5 н/о 9/0
[]
+31.8 +8.1 23 +31 +32 жарко 1012.1 1011.3
09 18.06 С 2 н/о н/о +29.9 +7.2 24 +29 +29 жарко 1012.4 1011.6
10 18.06 С 3 н/о 9/0
[]
+27.6 +8.0 29 +27 +27 жарко 1012.8 1012.0
12 18.06 З 4 н/о н/о +25.7 +14.5 50 +28 +28 жарко 1013.9 1013.1
13 18.06 З 3 н/о н/о +24.3 +12.3 47 +26 +26 жарко 1014.2 1013.4
15 18.06 Ю 3 н/о н/о +22.5 +10.6 47 +24 +24 комфорт 1014.0 1013.2
16 18.06 Ю 2 н/о н/о +22.0 +11.1 50 +24 +24 комфорт 1013.8 1013.0
18 18.06 ЮВ 3 н/о н/о +20.3 +11.2 56 +22 +22 комфорт 1013.7 1012.9
19 18.06 штиль 0 н/о 3/0
[]
+19.1 +11.4 61 +20 +20 1013.8 1013.0
21 18.06 СВ 3 н/о н/о +20.3 +13.3 64 +23 +23 комфорт 1014.3 1013.5
22 18.06 СВ 2 н/о 9/0
[]
+20.3 +13.7 66 +23 +23 комфорт 1014.9 1014.1
00 19.06 С 1 н/о н/о +25.1 +14.3 51 +28 +28 жарко 1016.0 1015.2
01 19.06 СЗ 3 н/о н/о +27.2 +15.6 49 +30 +30 душно 1016.3 1015.5
03 19.06 СЗ 4 н/о н/о +29.6 +13.8 38 +31 +31 жарко 1014.8 1014.0

 

Местоположение метеостанции Дерби (Северная территория, Австралия): широта -17.36 долгота 123.66 высота над уровнем моря 7 м.

В архиве по умолчанию представлена погода в Дерби за последнюю неделю. Архивные данные за месяц целиком и за предыдущие месяцы, начиная с января 2011 года, Вы можете получить, выбрав интересующий диапазон дат из раскрывающегося списка и нажав кнопку "Ввод!".


*Определитесь, кто Вы:
робот инопланетянин человек

Внимание! Время в таблицах - всемирное. Для получения местного времени необходимо прибавить поправку, которая равна 9.5 ч.

Смотрите также архив погоды в соседних городах и на ближайших метеорологических станциях:

Погода на Базе ВВС Curtin (Западная Австралия, Австралия) (30 км)
Погода в Робак Запад (Западная Австралия, Австралия) (154 км)
Погода в Бруме (Западная Австралия, Австралия) (165 км)
Погода на Острове Адель (Западная Австралия, Австралия) (213 км)
Погода в Фицрой-Кроссинге (Западная Австралия, Австралия) (221 км)
Погода на Острове Брауз (Западная Австралия, Австралия) (362 км)
Погода в Мандоре (Западная Австралия, Австралия) (397 км)
Погода в Холс Крик (Западная Австралия, Австралия) (435 км)
Погода в Трускотте (Западная Австралия, Австралия) (467 км)
Погода в Калумбуру (Западная Австралия, Австралия) (467 км)

Пояснения к столбцам:

Ветер - указаны скорость ветра в м/с - средняя за 10 мин, порывы в срок и между сроками (в фигурных скобках) и направление, откуда дует ветер: С - северный, СВ - северо-восточный, В - восточный, ЮВ - юго-восточный, Ю - южный, ЮЗ - юго-западный, З - западный, СЗ - северо-западный.
Видимость - горизонтальная дальность видимости в метрах или километрах. При видимости от 1 до 10 км при отсутствии осадков обычно наблюдается дымка, при ухудшении видимости до 1 км и менее - туман. В сухую погоду видимость может ухудшаться дымом, пылью или мглою.
Явления - указаны атмосферные явления, наблюдавшиеся в срок или в последний час перед сроком; фигурными скобками обозначены явления, наблюдавшиеся между сроками (за 1-3 часа до срока); квадратными скобками обозначены град или гололедные отложения с указанием их диаметра в мм.
Облачность - указаны через наклонную черту общая и нижняя облачность в баллах и высота нижней границы облаков в метрах; квадратными скобками обозначены формы облаков: Ci - перистые, Cs - перисто-слоистые, Cc - перисто-кучевые, Ac - высококучевые, As - высокослоистые, Sc - слоисто-кучевые, Ns - слоисто-дождевые, Cu - кучевые, Cb - кучево-дождевые. Подробнее классификацию облаков см. в Атласе облаков (PDF).
T - Температура воздуха - температура, измеренная на высоте 2 м над землей.
Td - Температура точки росы - температура, при понижении до которой содержащийся в воздухе водяной пар достигнет насыщения.
f - Относительная влажность воздуха - влажноcть воздуха, измеренная на высоте 2 м над землей.
Te - Эффективная температура - температура, которую ощущает одетый по сезону человек в тени. Характеристика душности погоды. При расчете учитывается влияние влажности воздуха и скорости ветра на теплоощущения человека.
Tes - Эффективная температура на солнце - температура, которую ощущает человек, с поправкой на солнечный нагрев. Характеристика знойности погоды. Зависит от высоты солнца над горизонтом, облачности и скорости ветра. Ночью, в пасмурную погоду, а также при ветре 12 м/с и более поправка равна нулю.
P - Атмосферное давление - приведенное к уровню моря атмосферное давление.
Po - Атмосферное давление - измеренное на уровне метеостанции атмосферное давление.
Tmin - Минимальная температура - минимум температуры воздуха на высоте 2 м над землей.
Tmax - Максимальная температура - максимум температуры воздуха на высоте 2 м над землей.
R - Количество осадков - Количество выпавших осадков за период времени, мм. При наведении курсора мыши на число - период времени, за который выпало указанное количество осадков.
R24 - Количество осадков - Количество выпавших осадков за 24 часа, мм.
S - Снежный покров - Высота снежного покрова, см. При наведении курсора мыши на число - состояние снежного покрова и степень покрытия местности в баллах.